Время (UTC), дата Ветер
(°,м/с) 
Видим.   Явления Облачность Т
(°С)
Тd
(°С)
f(%) Тe
(°С)
Pmin
(гПа)
dP
(гПа)
Po
(мм)
O2
(г/м3)
Тmin Tmax R s Состояние
почвы
00 01.03.16 080 (В) 2300 м  дымка  6/0 верхняя 
[Ci fib]
+2.5 +1.7 94 +1  1027.8  -1.3  764  305           
03 01.03.16 100 (В) 0100 м  туман  ?/?  
+3.6 +3.2 97 +1  1026.8  -0.9  763  303  +2.1         
06 01.03.16 090 (В) 0100 м  слаб. морось{туман}  ?/?  
+4.3 +3.9 97 +2  1026.4  -0.2  763  302           
09 01.03.16 090 (В) 0100 м  туман{морось}  ?/?  
+6.4 +6 97 +4  1024.8  -1.6  762  299           
12 01.03.16 090 (В) 8-10{11}  5000 м  в посл. час туман{морось}  10/10 100 м 
[St]
+5.9 +5.5 97 +3  1022.8  -1.9  760  299           
15 01.03.16 090 (В) 8-11{13}  7000 м  дымка  10/10 210 м 
[St]
+6.8 +4.9 88 +4  1020  -2.7  758  297    +7  0.0     
18 01.03.16 090 (В) 9-12{13}  7000 м  дымка  10/5 240 м средняя 
[St|Ac und]
+6.5 +5.1 91 +3  1018.1  -1.6  757  297           
21 01.03.16 100 (В) 11-15{15}  8000 м    10/5 210 м средняя 
[St|Ac und]
+5.3 +3.9 91 +1  1015.8  -2.3  755  298           
00 02.03.16 110 (В) 9-12{17}  5000 м  дымка  10/6 150 м средняя 
[St|Ac und]
+4.4 +3.3 93 +1  1013.6  -2.2  753  298           
03 02.03.16 110 (В) 6{12}  8000 м    10/6 210 м средняя 
[St|Ac und]
+4.5 +3.1 91 +2  1012.8  -0.7  753  298  +4.3         
06 02.03.16 120 (ЮВ) 7{12}  10 км    10/8 210 м средняя 
[St|Ac und]
+4.8 +3.1 89 +2  1012.8  -0.1  753  298  +4.3         
09 02.03.16 130 (ЮВ) 10 км    9/1 300 м средняя, верхняя 
[St|Ac trans|Ci]
+9.1 +4.6 73 +8  1012  -0.6  752  293           
12 02.03.16 120 (ЮВ) 10 км    9/0 верхняя 
[Ci]
+13.1 +5.7 61 +14  1010.4  -1.3  751  288           
15 02.03.16 050 (СВ) 10 км    9/0 средняя, верхняя 
[Ac trans|Ci fib]
+11.8 +5.8 67 +12  1010.3  -0.1  751  289    +13.9       
18 02.03.16 080 (В) 8000 м    9/0 средняя, верхняя 
[Ac trans|Ci fib]
+8.7 +5.7 81 +7  1010.2  -0.1  751  292           
21 02.03.16 080 (В) 8000 м    5/3 200 м средняя 
[St|Ac trans]
+5.5 +4.4 93 +3  1009.6  -0.6  750  296           
00 03.03.16 090 (В) 0200 м  туман  ?/?  
+4.1 +3.4 95 +1  1008.9  -0.8  750  297           
03 03.03.16 090 (В) 5{10}  0100 м  туман  ?/?  
+4.9 +4.5 97 +3  1008.9  750  296  +4         
06 03.03.16 070 (В) 6{11}  0800 м  туман  10/10 60 м 
[St]
+5.2 +4.9 98 +3  1008.9  750  296           
09 03.03.16 080 (В) 8-10{11}  6000 м  в посл. час морось{туман}  10/10 210 м 
[St]
+5.5 +5.1 97 +2  1008.2  -0.6  749  295           
12 03.03.16 100 (В) 7{12}  10 км  {морось, туман}  10/10 420 м 
[St]
+7.6 +4.8 82 +5  1006.4  -1.7  748  292           
15 03.03.16 100 (В) 8-11{12}  10 км    9/6 420 м средняя 
[St|Ac trans]
+7.3 +4.5 82 +5  1005.1  -1.2  747  292    +7.9  0.0     
18 03.03.16 090 (В) 6-10{13}  8000 м    9/6 300 м средняя 
[St|Ac trans]
+6.9 +4.9 87 +5  1005.3  0.7  747  293           
21 03.03.16 100 (В) 7{11}  8000 м  {дождь}  9/6 210 м средняя 
[St|Ac trans]
+6.4 +4.7 89 +4  1005.1  -0.1  747  293           
00 04.03.16 090 (В) 7-12{11}  8000 м  {дождь}  10/8 120 м средняя 
[St|Ac und]
+5.8 +4.5 91 +3  1004.6  -0.5  747  294           
03 04.03.16 100 (В) 7{12}  8000 м  слаб. дождь  10/8 150 м средняя 
[Sc|Ac und]
+5.5 +4.3 92 +3  1006  1.5  748  295  +5.5    0.0     
06 04.03.16 120 (ЮВ) 3{12}  7000 м  слаб. дождь  9/5 750 м средняя 
[Sc|Ac trans]
+6.4 +5.3 93 +5  1006.6  0.5  748  294           
09 04.03.16 230 (ЮЗ) 9-13{12}  10 км  {дождь}  6/5 720 м средняя 
[Sc|Ac trans]
+15.1 +6.1 55 +14  1005.9  -0.3  748  285           
12 04.03.16 240 (ЮЗ) 8-12{13}  10 км  {дождь}  8/6 840 м средняя 
[Sc|Ac trans]
+16.2 +4.3 45 +15  1005.4  -0.5  747  284           
15 04.03.16 290 (З) 4{12}  10 км    9/4 600 м кучево-дожд., средняя, верхняя 
[Cb calv|Ac trans|Ci fib]
+12.2 +6.8 70 +12  1006.7  1.1  748  288    +17.4  0.0     
18 04.03.16 110 (В) 2{12}  5000 м  дым  6/3 600 м средняя 
[Sc|Ac trans]
+7.8 +5.2 84 +8  1007.5  0.6  749  292           
21 04.03.16 100 (В) 7000 м  дым  6/0 средняя 
[Ac trans]
+8 +5.8 86 +6  1008  0.5  749  292           
00 05.03.16 080 (В) 6000 м  дым  6/0 средняя, верхняя 
[Ac trans|Ci fib]
+6.1 +4.8 91 +5  1007.9  -0.1  749  294           
03 05.03.16 090 (В) 5000 м  дым  6/0 средняя, верхняя 
[Ac trans|Ci fib]
+6.5 +4.4 86 +5  1007.4  -0.5  749  294  +5.5         
06 05.03.16 090 (В) 7000 м  слаб. ливневой дождь  9/4 1000 м кучево-дожд., средняя 
[Cb calv|Ac trans]
+8.2 +5.2 81 +7  1007.6  0.3  749  292  +4.7         
09 05.03.16 070 (В) 6000 м  слаб. ливневой дождь  9/3 600 м кучево-дожд., средняя 
[Cb calv|Ac trans]
+10.4 +8.4 87 +10  1007.6  749  289           
12 05.03.16 090 (В) 7000 м  слаб. ливневой дождь  10/4 600 м кучево-дожд., средняя 
[Cb calv|Ac trans]
+10.7 +9 89 +10  1008.1  0.5  749  289           
15 05.03.16 140 (ЮВ) н/о  слаб. ливневой дождь  9/5 360 м кучево-дожд., средняя 
[Cb calv|Ac trans]
+10.4 +9 91 +10  1008.2  749  289    +11     
18 05.03.16 140 (ЮВ) 3700 м  дымка{ливн. осадки}  8/4 200 м кучево-дожд., средняя 
[Cb calv|Ac trans]
+9.4 +8.2 92 +9  1009.1  0.9  750  291           
21 05.03.16 210 (ЮЗ) 7000 м  слаб. дождь  9/6 180 м средняя 
[Sc|Ac trans]
+8.4 +6.8 90 +7  1010  0.7  751  292           
00 06.03.16 230 (ЮЗ) 3100 м  слаб. ливневой дождь{морось}  10/8 100 м кучево-дожд., средняя 
[Cb calv|Ac und]
+8.2 +7.3 94 +6  1010.5  0.5  751  293           
03 06.03.16 250 (З) 6{12}  2000 м  в посл. час туман{ливн. осадки, дождь}  10/8 100 м средняя 
[Frnb|Ac und]
+7.6 +6.9 95 +6  1011.9  1.3  752  294  +7.4       
06 06.03.16 260 (З) 5{12}  3800 м  дымка{ливн. осадки, дождь}  10/8 120 м средняя 
[St|Ac und]
+7.2 +5.9 91 +5  1014.2  2.3  754  295  +7.1         
09 06.03.16 250 (З) 4000 м  дымка  10/8 180 м средняя 
[St|Ac und]
+6.7 +5.2 90 +5  1016.2  1.8  755  296           
12 06.03.16 250 (З) 10 км    10/8 400 м средняя 
[St|Ac und]
+6.2 +3.5 83 +4  1017.4  1.1  756  297           
15 06.03.16 260 (З) 10 км  дымка  9/6 570 м средняя 
[Sc|Ac trans]
+6.3 +2.6 77 +5  1018.1  0.6  757  298    +7.7       
18 06.03.16 240 (ЮЗ) 8000 м    9/5 750 м средняя 
[Sc|Ac trans]
+6.5 +2.9 78 +7  1020  1.8  758  298           
21 06.03.16 тихо ()   8000 м    9/5 1000 м средняя 
[Sc|Ac trans]
+6.5 +2.1 73 +7  1020.5  0.5  758  298           
00 07.03.16 090 (В) 7000 м  дымка  8/0 средняя 
[Ac trans]
+3.2 +0.7 84 +4  1020.8  0.3  759  302           
03 07.03.16 080 (В) 8000 м  дымка  9/0 средняя 
[Ac trans]
+4.1 +2.1 87 +4  1021.6  0.7  759  301  +2.4         
06 07.03.16 110 (В) 10 км    9/0 средняя, верхняя 
[Ac trans|Ci]
+6.9 +3.1 77 +6  1022.7  1.1  760  298           
09 07.03.16 120 (ЮВ) 10 км    9/4 600 м средняя, верхняя 
[Sc|Ac trans|Ci]
+10.3 +4.3 66 +9  1022.3  -0.3  760  294           
12 07.03.16 130 (ЮВ) 10 км    8/5 840 м верхняя 
[Sc|Ci fib]
+13.2 +4.5 56 +13  1020.7  -1.5  759  291           
15 07.03.16 090 (В) 10 км    4/0 средняя, верхняя 
[Ac trans|Ci fib]
+11.2 +4 61 +10  1020.9  759  293    +13.5       
18 07.03.16 090 (В) 10 км    3/0 верхняя 
[Ci fib]
+8.2 +2.9 69 +6  1021.6  0.6  759  297           
21 07.03.16 080 (В) 6{10}  8000 м    3/0 верхняя 
[Ci fib]
+4.5 +1.7 82 +2  1021.5  -0.1  759  301           
00 08.03.16 080 (В) 7{10}  8000 м    ясно 
+3.8 +2 88 +1  1020.8  -0.6  759  301           
03 08.03.16 090 (В) 8-11{12}  0100 м  туман  ?/?  
+4 +3.5 97 +1  1021.7  0.8  759  301  +3.3         
06 08.03.16 090 (В) 8-10{12}  7000 м  дымка{морось, туман}  10/8 240 м средняя 
[St|Ac und]
+5 +4.2 95 +2  1022.4  0.8  760  300           
09 08.03.16 090 (В) 9-12{12}  10 км    3/0 средняя 
[Ac trans]
+9.9 +2.8 61 +8  1021.2  -1  759  295           
12 08.03.16 090 (В) 8-11{13}  10 км    ясно 
+12.9 +3 51 +11  1019.8  -1.3  758  291           
15 08.03.16 070 (В) 7{12}  10 км    ясно 
+10.8 +1.2 51 +9  1019.3  -0.5  758  293    +13.2  0.0     
18 08.03.16 080 (В) 5{12}  8000 м    3/0 верхняя 
[Ci fib]
+6.8 +1.9 71 +5  1020.2  0.7  758  298           
21 08.03.16 080 (В) 6{11}  8000 м    3/0 верхняя 
[Ci fib]
+5 +1.3 77 +2  1020.2  -0.1  758  300           
00 09.03.16 080 (В) 6{11}  8000 м    3/0 верхняя 
[Ci fib]
+3.5 +0.4 80 +1  1019.7  -0.5  758  301           
03 09.03.16 070 (В) 7{10}  8000 м    3/0 верхняя 
[Ci fib]
+2.4 +0 84 -1  1020.1  0.2  758  303  +2.2         
06 09.03.16 080 (В) 7{10}  10 км    8/0 верхняя 
[Ci fib]
+4.2 +0.8 79 +1  1020.8  0.8  759  301  +2.1         
09 09.03.16 080 (В) 10 км    4/0 верхняя 
[Ci fib]
+9.7 +2.1 59 +8  1019.8  -0.8  758  295           
12 09.03.16 070 (В) 7-10{10}  10 км    ясно 
+13.6 +1.9 45 +12  1018.4  -1.2  757  290           
15 09.03.16 080 (В) 7{12}  10 км    4/0 верхняя 
[Ci fib]
+11 +2.3 55 +9  1018.6  757  293    +14.3       
18 09.03.16 090 (В) 5{12}  8000 м    5/3 600 м средняя, верхняя 
[Sc|Ac trans|Ci fib]
+5.8 +2 77 +4  1019.6  0.8  758  299           
21 09.03.16 080 (В) 8000 м  дым  ясно 
+3.1 +0.6 84 +1  1019.5  -0.1  758  302           
00 10.03.16 070 (В) 8000 м    9/6 480 м средняя 
[Sc|Ac trans]
+3.7 +1.3 84 +1  1019  -0.5  757  301           
03 10.03.16 070 (В) 8000 м    9/6 480 м средняя 
[Sc|Ac trans]
+3 +0.1 81 1018.6  -0.3  757  302  +2.5         
06 10.03.16 070 (В) 7{10}  7000 м  дымка  10/8 420 м средняя 
[Sc|Ac und]
+2.7 +0.6 86 -1  1019.2  0.5  757  302           
09 10.03.16 070 (В) 10 км  в посл. час дождь  10/6 540 м средняя 
[Sc|Ac und]
+3.5 +1 84 1019.2  757  301           
12 10.03.16 070 (В) 6{10}  10 км  {дождь}  10/6 630 м средняя 
[Sc|Ac und]
+3.7 +1.2 84 +1  1018.4  -0.7  757  301           
15 10.03.16 070 (В) 8-11{11}  10 км    10/6 300 м средняя 
[Sc|Ac und]
+3.5 +1.2 85 1018.4  -0.1  757  301    +4.1  0.0     
18 10.03.16 080 (В) 7{12}  8000 м    10/6 330 м средняя 
[Sc|Ac und]
+3.2 +0.8 84 1018.7  0.4  757  301           
21 10.03.16 080 (В) 8-10{10}  8000 м    10/6 700 м средняя 
[Sc|Ac und]
+2.6 +0.8 88 -1  1018.7  -0.1  757  302           
00 11.03.16 080 (В) 7-10{10}  8000 м    10/6 240 м средняя 
[St|Ac und]
+2.3 +0.7 89 -1  1018.2  -0.2  757  302           
03 11.03.16 080 (В) 8-11{11}  8000 м    10/6 180 м средняя 
[St|Ac und]
+2.8 +1.2 89 -1  1018.5  0.1  757  302  +2.3         
06 11.03.16 080 (В) 7-10{13}  10 км    10/10 240 м 
[St]
+3.5 +1.9 89 1019.7  1.1  758  301           
09 11.03.16 080 (В) 7-10{11}  10 км    9/9 270 м 
[St]
+4.6 +2 83 +2  1020  0.3  758  300           
12 11.03.16 090 (В) 7{11}  10 км    9/9 600 м 
[Sc]
+6 +2.6 79 +3  1019.7  -0.1  758  298           
15 11.03.16 110 (В) 5{10}  10 км    9/9 630 м 
[Sc]
+5.1 +1.9 80 +3  1020.5  0.6  758  300    +6.2       
18 11.03.16 090 (В) 6{10}  10 км    10/10 500 м 
[Sc]
+4.3 +1.1 80 +2  1021.3  0.9  759  301           
21 11.03.16 090 (В) 8000 м    10/10 570 м 
[Sc]
+3.6 +0.7 81 +1  1021.7  0.3  759  302           
00 12.03.16 070 (В) 4{10}  8000 м    4/4 300 м 
[Sc]
+1.7 -0.3 87 1021.5  -0.2  759  304           
03 12.03.16 050 (СВ) 8000 м  дымка  8/5 870 м средняя 
[Sc|Ac trans]
+1.5 +0.3 92 -1  1021.7  0.1  759  304  -0.2         
06 12.03.16 090 (В) 10 км    10/10 750 м 
[Sc]
+4.2 +1.3 81 +2  1022.5  0.9  760  301           
09 12.03.16 090 (В) 10 км    10/10 720 м 
[Sc]
+5.4 +0.4 70 +3  1022.9  0.3  760  300           
12 12.03.16 120 (ЮВ) 10 км    8/8 800 м 
[Sc]
+7.3 +0.4 62 +6  1022.1  -0.7  760  298           
15 12.03.16 090 (В) 10 км    9/9 1000 м 
[Sc]
+6.9 +0.8 65 +8  1022  760  298    +8.3       
18 12.03.16 060 (СВ) 8000 м    9/9 960 м 
[Sc]
+5.9 +1 71 +6  1022.6  0.4  760  300           
21 12.03.16 тихо ()   8000 м    9/9 1080 м 
[Sc]
+5.7 +1.3 73 +6  1022.2  -0.4  760  300           
00 13.03.16 290 (З) 8000 м  в посл. час дождь  9/9 840 м 
[Sc]
+5.3 +1.6 77 +6  1021.4  -0.7  759  300           
03 13.03.16 300 (СЗ) 5000 м  слаб. дождь  10/10 800 м 
[Sc]
+5.1 +2.5 83 +5  1020.8  -0.6  759  300  +4.6    0.2     
06 13.03.16 320 (СЗ) 8000 м  слаб. дождь  10/4 600 м средняя 
[Sc|As op]
+5.1 +2.8 85 +5  1020.9  759  300  +4.5         
09 13.03.16 280 (З) 10 км  слаб. дождь  10/5 750 м средняя 
[Sc|Ac und]
+6.6 +3.4 80 +6  1020.1  -0.6  758  298           
12 13.03.16 300 (СЗ) 10 км  {дождь}  9/5 600 м средняя 
[Sc|Ac und]
+7.3 +2.6 72 +7  1019  -1  757  297           
15 13.03.16 250 (З) 10 км    9/3 300 м средняя 
[Sc|Ac trans]
+7.4 +2.1 69 +8  1017.8  -1.1  756  296    +7.6  0.0     
18 13.03.16 280 (З) 5000 м  дым  9/4 600 м средняя 
[Sc|Ac trans]
+6.2 +2 74 +7  1017.3  -0.5  756  298           
21 13.03.16 260 (З) 8000 м  дымка  6/3 600 м средняя 
[Sc|Ac trans]
+5.2 +2.7 84 +4  1016  -1.2  755  298           
00 14.03.16 270 (З) 3300 м  дымка  8/5 100 м средняя 
[St|Ac trans]
+4.4 +3.3 93 +3  1014.4  -1.6  754  298           
03 14.03.16 230 (ЮЗ) 2000 м  в посл. час дождь  10/8 120 м средняя 
[Sc|Ac und]
+3.3 +2.4 94 +4  1012.9  -1.5  753  299  +2.8    0.0     
06 14.03.16 320 (СЗ) 4700 м  слаб. дождь  10/8 210 м средняя 
[Sc|Ac und]
+4.9 +3.7 92 +5  1011.6  -1.1  752  297           
09 14.03.16 350 (С) 10 км  слаб. ливневой дождь  10/6 700 м кучево-дожд., средняя 
[Cb calv|Ac und]
+5.5 +3 84 +4  1010.3  -1.3  751  296           
12 14.03.16 360 (С) 3700 м  слаб. ливневой дождь  10/6 800 м кучево-дожд., средняя 
[Cb calv|Ac und]
+3.4 +2 91 +2  1008.9  -1.4  750  298           
15 14.03.16 360 (С) 2000 м  ливневой дождь  10/6 180 м кучево-дожд., средняя 
[Cb calv|Ac und]
+0.8 +0 94 -3  1009  750  301    +5.9  11     
18 14.03.16 020 (С) 6-10{13}  8000 м  слаб. ливневой дождь  10/6 360 м кучево-дожд., средняя 
[Cb calv|Ac und]
+1.7 +0.2 90 -1  1010.2  1.1  751  301           
21 14.03.16 040 (СВ) 7-10{15}  8000 м  слаб. ливневой снег  10/5 630 м кучево-дожд., средняя 
[Cb calv|Ac und]
+1.1 -1.7 82 -3  1011.7  1.5  752  302           
00 15.03.16 040 (СВ) 8-12{15}  8000 м  {ливн. осадки}  8/3 600 м средняя 
[Sc|Ac trans]
+0.2 -3.9 74 -4  1013.3  1.4  753  304           
03 15.03.16 010 (С) 6{12}  8000 м    3/0 средняя 
[Ac trans]
-1.3 -4.6 78 -5  1015.6  2.3  755  306  -1.3       
06 15.03.16 010 (С) 6{12}  10 км    1/1 300 м 
[Sc]
-1.1 -5.2 74 -5  1018.2  2.5  757  307  -2         
09 15.03.16 030 (СВ) 6-10  10 км    6/6 800 м 
[Sc]
+1.7 -5.7 58 -1  1019.5  1.4  758  304           
12 15.03.16 020 (С) 5{12}  10 км    6/6 1000 м 
[Sc]
+2.7 -7.3 48 1020  0.3  758  303           
15 15.03.16 010 (С) 10 км  {ливн. осадки}  8/3 1000 м средняя 
[Sc|Ac trans]
+2.2 -7.4 49 1020.8  0.7  759  304    +3.5  0.0     
18 15.03.16 020 (С) 8000 м  {ливн. осадки}  9/3 1000 м средняя 
[Sc|Ac trans]
+1 -6.3 58 1021.8  759  306           
21 15.03.16 020 (С) 8000 м    9/4 1000 м средняя 
[Sc|Ac trans]
+0.6 -6.5 59 -1  1022  0.2  759  306           
00 16.03.16 320 (СЗ) 8000 м  в посл. час снег  8/4 1000 м средняя 
[Sc|Ac trans]
-0.1 -6.8 61 -1  1021.9  -0.2  759  307           
03 16.03.16 330 (СЗ) 8000 м    6/0 средняя 
[Ac trans]
-0.8 -6.8 64 -3  1021.8  759  308  -0.9    0.0     
06 16.03.16 350 (С) 10 км    ясно 
+0.9 -7.5 53 -2  1022.4  0.6  760  306  -1.1         
09 16.03.16 310 (СЗ) 4{11}  10 км    6/4 600 м средняя 
[Sc|Ac trans]
+3.1 -8.6 42 +1  1021.8  -0.5  759  303           
12 16.03.16 320 (СЗ) 5{11}  10 км    4/3 600 м средняя 
[Sc|Ac trans]
+5 -9.5 34 +3  1020.1  -1.6  758  301           
15 16.03.16 250 (З) 6{10}  10 км    5/0 средняя, верхняя 
[Ac trans|Ci fib]
+4.4 -6.1 46 +2  1018.5  -1.4  757  301    +5.7       
18 16.03.16 250 (З) 6{10}  8000 м    5/0 средняя, верхняя 
[Ac trans|Ci fib]
+2.9 -3.2 64 1017.7  -0.6  756  302           
21 16.03.16 270 (З) 8000 м    9/0 средняя 
[Ac trans]
+4.1 -3.9 56 +2  1015.8  -1.9  755  300           
00 17.03.16 270 (З) 8000 м    8/0 средняя 
[Ac trans]
+3.7 -4.1 57 +1  1014.3  -1.5  754  300           
03 17.03.16 280 (З) 8000 м  слаб. снег  10/0 средняя 
[As op]
+3.1 -2.6 66 +1  1013.5  -0.7  753  300  +2.4    0.0     
06 17.03.16 280 (З) 10 км  в посл. час дождь{снег}  10/0 средняя 
[As op]
+3 -0.7 77 +1  1013.9  0.4  753  300           
09 17.03.16 280 (З) 4{10}  3900 м  слаб. дождь  10/5 480 м средняя 
[Sc|As op]
+3.9 +0.5 78 +2  1014  0.1  754  299           
12 17.03.16 260 (З) 5{10}  10 км  {дождь}  9/5 750 м средняя 
[Sc|Ac trans]
+4.8 -0.3 70 +3  1013.4  -0.6  753  298           
15 17.03.16 260 (З) 5-10{10}  10 км  в посл. час дождь  10/5 720 м средняя 
[Sc|Ac und]
+4.5 -0.2 71 +2  1012.5  -0.9  752  298    +4.8  0.0     
18 17.03.16 260 (З) 5{10}  8000 м  в посл. час дождь  10/8 1020 м средняя 
[Sc|Ac und]
+4.4 -0.1 73 +2  1012.5  752  298           
21 17.03.16 270 (З) 5{11}  8000 м  в посл. час дождь  10/8 750 м средняя 
[Sc|Ac und]
+4.3 +0.2 75 +2  1011.2  -1.2  752  298           
00 18.03.16 260 (З) 6-10{14}  8000 м  {дождь}  10/8 500 м средняя 
[Sc|Ac und]
+3.7 +0.4 79 +1  1009.7  -1.4  750  298           
03 18.03.16 260 (З) 7-11{10}  5000 м  слаб. дождь  10/8 300 м средняя 
[Sc|Ac und]
+4.4 +2.6 88 +1  1007.7  -2  749  297  +3.6    0.0     
06 18.03.16 260 (З) 8-12{15}  7000 м  слаб. дождь  10/8 420 м средняя 
[Sc|Ac und]
+4.6 +2.2 84 +1  1006.7  -0.9  748  296           
09 18.03.16 270 (З) 7-11{14}  4000 м  слаб. ливневой дождь  10/8 500 м кучево-дожд., средняя 
[Cb calv|Ac und]
+3.9 +0.6 79 +1  1005.9  -0.7  748  297           
12 18.03.16 250 (З) 9-16{15}  5000 м  слаб. ливневой дождь  10/8 300 м кучево-дожд., средняя 
[Cb calv|Ac und]
+4.4 +2.5 87 +1  1005.2  -0.6  747  296           
15 18.03.16 250 (З) 8-12{16}  10 км  в посл. час ливневой дождь  10/6 450 м кучево-дожд., средняя 
[Cb calv|Ac und]
+5.9 +2.8 80 +3  1004  -1  746  294    +5.9  0.0     
18 18.03.16 240 (ЮЗ) 9-12{16}  8000 м  в посл. час дождь{ливн. осадки}  10/6 960 м средняя 
[Sc|Ac und]
+6.1 +2.6 78 +3  1002.8  -1.3  745  293           
21 18.03.16 250 (З) 8-12{15}  7000 м  слаб. ливневой дождь  10/6 330 м кучево-дожд., средняя 
[Cb calv|Ac und]
+6.2 +3 80 +3  1001.1  -1.6  744  293           
00 19.03.16 240 (ЮЗ) 10-14{18}  7000 м  слаб. ливневой дождь  10/6 660 м кучево-дожд., средняя 
[Cb calv|Ac und]
+6.1 +3.3 82 +3  998.6  -2.3  742  292           
03 19.03.16 250 (З) 11-18{22}  3600 м  слаб. ливневой дождь  10/8 330 м кучево-дожд., средняя 
[Cb calv|Ac und]
+5.9 +3.8 86 +2  997.6  -1  741  292  +5.3       
06 19.03.16 290 (З) 4{22}  4600 м  слаб. ливневой дождь  10/8 300 м кучево-дожд., средняя 
[Cb calv|Ac und]
+3.7 +2 89 +2  998.3  0.5  742  295  +3.3         
09 19.03.16 360 (С) 2{10}  0700 м  ливневой снег [диам. отлож. мокр. снега 10 мм]  ?/?  
-0.4 -0.9 96 -1  1001.4  2.9  744  300           
12 19.03.16 050 (СВ) 3{10}  1700 м  ливневой снег [диам. отлож. мокр. снега 5 мм]  10/8 1000 м кучево-дожд., средняя 
[Cb calv|Ac und]
-0.9 -1.8 94 -3  1003.7  2.3  746  302           
15 19.03.16 040 (СВ) 10 км  слаб. ливневой снег [диам. отлож. мокр. снега 1 мм]  10/5 900 м кучево-дожд., средняя 
[Cb calv|Ac und]
-1.6 -4.9 78 -4  1006.1  2.1  748  304    +6  17     
18 19.03.16 350 (С) 3900 м  слаб. ливневой снег [диам. отлож. мокр. снега 1 мм]  10/8 1000 м кучево-дожд., средняя 
[Cb calv|Ac und]
-2.7 -3.6 94 -4  1008.9  2.8  750  305           
21 19.03.16 280 (З) 8000 м  {ливн. осадки, снег} [диам. отлож. мокр. снега 0 мм]  8/5 420 м средняя 
[Sc|Ac trans]
-2.9 -4 92 -4  1010.7  1.6  751  306           
00 20.03.16 310 (СЗ) 8000 м  {ливн. осадки, снег}  5/3 1000 м средняя 
[Sc|Ac trans]
-3.3 -5.3 86 -3  1011.8  1.1  752  307           
03 20.03.16 310 (СЗ) 8000 м    6/0 средняя 
[Ac trans]
-4.7 -6.7 86 -6  1013.3  1.5  753  309  -4.7       
06 20.03.16 250 (З) 10 км    ясно 
-3.1 -7.2 73 -5  1015.3  754  308  -6.5         
09 20.03.16 250 (З) 6-10{10}  10 км    5/0 
[Sc]
-0.4 -7.7 58 -4  1015.6  0.3  755  305           
12 20.03.16 240 (ЮЗ) 9-14{13}  10 км    8/0 средняя 
[Sc|Ac trans]
+0.6 -9.1 48 -4  1014.5  -0.9  754  304           
15 20.03.16 230 (ЮЗ) 8-12{14}  10 км  в посл. час снег  10/0 средняя 
[Sc|Ac und]
+0.4 -5.1 67 -4  1013.2  -1.3  753  303    +0.9  0.0     
18 20.03.16 220 (ЮЗ) 6{17}  8000 м  слаб. ливневой снег  10/5 1170 м кучево-дожд., средняя 
[Cb calv|Ac und]
-0.2 -1.1 94 -4  1011.1  -2  751  303           
21 20.03.16 250 (З) 11-19{16}  8000 м  {ливн. осадки}  9/0 средняя 
[Ac trans]
+3.5 -2 67 -1  1011  -0.1  751  299           
00 21.03.16 260 (З) 8-15{19}  8000 м  слаб. ливневой дождь  10/8 450 м кучево-дожд., средняя 
[Cb calv|Ac und]
+3 -0.5 78 -1  1011.9  0.8  752  300           
03 21.03.16 290 (З) 4{15}  8000 м  {ливн. осадки}  10/5 960 м средняя 
[Sc|Ac und]
+2.2 -2 74 1012.7  0.9  753  301  -0.7    0.0     
06 21.03.16 350 (С) 2{15}  4100 м  слаб. ливневой снег  10/5 450 м кучево-дожд., средняя 
[Cb calv|Ac und]
+0.4 -2.1 83 1014.8  1.9  754  304           
09 21.03.16 070 (В) 2000 м  слаб. ливневой снег  10/8 240 м кучево-дожд., средняя 
[Cb calv|Ac und]
-0.3 -1.6 91 -1  1015.6  0.7  755  305           
12 21.03.16 090 (В) 3700 м  слаб. ливневой снег  10/8 210 м кучево-дожд., средняя 
[Cb calv|Ac und]
-0.3 -1 95 -3  1015.7  0.1  755  305           
15 21.03.16 110 (В) 2100 м  дымка{ливн. осадки, дождь} [диам. гололёда 1 мм]  10/5 330 м средняя 
[Frnb|Ac und]
+0 -0.5 96 -2  1015.3  -0.4  754  304    +2.2     
18 21.03.16 230 (ЮЗ) 8000 м  слаб. дождь{ливн. осадки} [диам. гололёда 0 мм]  9/6 630 м средняя 
[Sc|Ac trans]
+2.8 +2.2 96 +1  1015  -0.1  754  301           
21 21.03.16 200 (Ю) 8000 м  дымка{дождь}  9/0 средняя 
[Sc|Ac trans]
+2.6 +1.1 90 +1  1014.6  -0.3  754  301           
00 22.03.16 220 (ЮЗ) 8000 м  слаб. дождь  9/0 средняя 
[Sc|Ac trans]
+3.6 +2.1 90 +1  1013.7  -0.9  753  299           
03 22.03.16 230 (ЮЗ) 8000 м  {дождь}  9/4 600 м средняя, верхняя 
[Sc|Ac trans|Ci fib]
+3.5 +2.2 91 +1  1013.5  -0.1  753  299  +0    0.0     
06 22.03.16 230 (ЮЗ) 10 км  в посл. час дождь  9/3 600 м средняя 
[Sc|Ac trans]
+5.1 +3.5 89 +3  1014.1  0.6  754  298           
09 22.03.16 230 (ЮЗ) 8000 м  слаб. ливневой дождь  9/5 900 м кучево-дожд., средняя 
[Cb calv|Ac trans]
+8.1 +4.7 79 +7  1013.6  -0.4  753  294           
12 22.03.16 220 (ЮЗ) 10 км  {ливн. осадки, дождь}  9/5 1000 м кучево-дожд., средняя 
[Cb calv|Ac trans]
+11.1 +3.6 60 +10  1011.7  -1.7  752  291           
15 22.03.16 100 (В) 2{11}  10 км  в посл. час ливневой дождь  9/6 1000 м кучево-дожд., средняя 
[Cb calv|Ac trans]
+7.1 +5.1 87 +7  1010.4  -1.3  751  294    +11.3     
18 22.03.16 110 (В) 2{11}  5000 м  слаб. ливневой дождь  10/6 900 м кучево-дожд., средняя 
[Cb calv|Ac und]
+6 +4.8 92 +6  1009.3  -1.1  750  295           
21 22.03.16 200 (Ю) 8000 м  в посл. час ливневой дождь  10/5 750 м кучево-дожд., средняя 
[Cb calv|Ac und]
+6.8 +4.1 83 +6  1007.4  -1.8  749  294           
00 23.03.16 210 (ЮЗ) 2700 м  слаб. ливневой дождь  10/8 180 м кучево-дожд., средняя 
[Cb calv|Ac und]
+6.4 +5.4 93 +5  1005.6  -1.8  747  293           
03 23.03.16 360 (С) 4900 м  слаб. ливневой дождь  10/8 600 м кучево-дожд., средняя 
[Cb calv|Ac und]
+5.1 +3.5 89 +5  1004.2  -1.3  746  295  +5.1    14     
06 23.03.16 310 (СЗ) 7000 м  слаб. ливневой дождь  10/5 630 м кучево-дожд., средняя 
[Cb calv|As op]
+4.8 +3.1 89 +3  1006.2  1.9  748  296  +4.4         
09 23.03.16 300 (СЗ) 10 км  {ливн. осадки}  5/0 
[Sc]
+8.8 +3.2 68 +8  1007.8  1.7  749  292           
12 23.03.16 260 (З) 6{11}  10 км  {ливн. осадки}  5/0 
[Sc]
+10.7 +3.5 61 +9  1009.9  751  291           
15 23.03.16 250 (З) 10 км    4/0 средняя, верхняя 
[Ac trans|Ci fib]
+9.6 +1.9 59 +9  1011  1.1  752  292    +10.9     
18 23.03.16 240 (ЮЗ) 8000 м    9/0 средняя, верхняя 
[Ac trans|Ci fib]
+7 +2.6 74 +6  1012.7  1.6  753  295           
21 23.03.16 тихо ()   7000 м  дымка  9/0 средняя, верхняя 
[Ac trans|Ci fib]
+4.5 +2.2 85 +5  1012.1  -0.7  752  298           
00 24.03.16 100 (В) 7000 м  дымка  9/0 средняя, верхняя 
[Ac trans|Ci fib]
+3.3 +1.9 91 +3  1011.3  -0.7  752  299           
03 24.03.16 090 (В) 8000 м  слаб. дождь  9/0 средняя 
[Sc|Ac trans]
+4.7 +2.2 84 +3  1009.3  -2  750  297  +3.2    0.0     
06 24.03.16 110 (В) 2500 м  слаб. ливневой дождь  10/0 кучево-дожд., средняя 
[Cb calv|Ac und]
+5.1 +4.1 93 +3  1007.2  -2.1  749  295           
09 24.03.16 090 (В) 8-10  4900 м  слаб. ливневой дождь  9/0 кучево-дожд., средняя 
[Cb calv|Ac trans]
+7.5 +6.1 91 +5  1004.7  -2.2  747  292           
12 24.03.16 110 (В) 7{13}  10 км  {ливн. осадки}  9/0 кучево-дожд., средняя 
[Cb calv|Ac trans]
+10.8 +7.2 78 +9  1001.9  -2.7  745  287           
15 24.03.16 110 (В) 10 км    9/0 средняя 
[Sc|Ac trans]
+11.1 +7 76 +10  1001.5  -0.4  744  287    +11.6     
18 24.03.16 070 (В) 8000 м  дым  9/0 средняя 
[Ac trans]
+9.4 +6.6 83 +9  1001.1  -0.4  744  289           
21 24.03.16 110 (В) 8000 м  дым  9/0 кучево-дожд., средняя 
[Cb calv|Ac trans]
+8.3 +6 85 +8  1002  0.8  745  290           
00 25.03.16 130 (ЮВ) 8000 м    9/0 средняя 
[Ac trans]
+10.1 +6.4 78 +11  1001.7  -0.1  745  288           
03 25.03.16 090 (В) 8000 м    9/0 средняя 
[Ac trans]
+9.7 +6.3 79 +11  1002.2  0.5  745  289  +8.2         
06 25.03.16 210 (ЮЗ) 10 км    9/0 средняя, верхняя 
[Ac trans|Ci fib]
+14.5 +8.6 68 +15  1002.9  0.8  746  284           
09 25.03.16 160 (Ю) 10 км  слаб. ливневой дождь  9/0 кучево-дожд., средняя, верхняя 
[Cb calv|Ac trans|Ci fib]
+15.3 +10.5 73 +17  1002.7  746  283           
12 25.03.16 260 (З) 5000 м  слаб. ливневой дождь  9/0 кучево-дожд., средняя 
[Cb calv|Ac trans]
+13 +9 77 +13  1004.2  1.4  747  286           
15 25.03.16 240 (ЮЗ) 2400 м  слаб. ливневой дождь  10/8 1000 м кучево-дожд., средняя 
[Cb calv|Ac und]
+11.7 +10.1 90 +12  1005.4  0.9  747  287    +15.8  0.5     
18 25.03.16 250 (З) 6{10}  4000 м  слаб. ливневой дождь  10/8 150 м кучево-дожд., средняя 
[Cb calv|Ac und]
+9.7 +8.4 92 +8  1007.1  1.6  749  290           
21 25.03.16 260 (З) 5{10}  1500 м  слаб. морось{ливн. осадки}  10/10 100 м 
[St]
+7.4 +6.6 95 +6  1008.5  1.3  750  293           
00 26.03.16 270 (З) 4{10}  3600 м  слаб. морось{ливн. осадки}  10/10 120 м 
[St]
+5.6 +4.4 92 +4  1009.9  1.4  751  296           
03 26.03.16 280 (З) 3200 м  дымка{морось}  10/10 210 м 
[St]
+4.4 +2.8 89 +3  1011  0.9  751  298  +4.4    0.0     
06 26.03.16 280 (З) 4000 м  дымка  10/8 300 м средняя 
[Frnb|Ac und]
+3.6 +1.7 87 +2  1011.9  0.9  752  299  +3.6         
09 26.03.16 310 (СЗ) 10 км    10/8 360 м средняя 
[St|Ac und]
+4.1 +0.9 80 +3  1012  0.1  752  298           
12 26.03.16 300 (СЗ) 10 км    10/8 420 м средняя 
[Sc|Ac und]
+4.4 +0.8 77 +3  1011.9  752  298           
15 26.03.16 270 (З) 10 км    10/8 400 м средняя 
[St|Ac und]
+3.7 +0.3 78 +3  1012.6  0.6  753  299    +4.5       
18 26.03.16 300 (СЗ) 7000 м  дымка  10/8 420 м средняя 
[St|Ac und]
+3.5 +0.2 79 +4  1013.6  753  300           
21 26.03.16 280 (З) 4200 м  дымка  10/6 330 м средняя 
[St|Ac und]
+3.3 +0.6 82 +3  1013.9  0.2  753  300           
00 27.03.16 310 (СЗ) 5000 м  слаб. дождь  10/6 400 м средняя 
[Sc|Ac und]
+3 +0.4 83 +2  1013.9  753  300           
03 27.03.16 250 (З) 4900 м  дымка{дождь}  10/8 300 м средняя 
[Sc|Ac und]
+2.7 +0.4 85 +3  1013.6  -0.3  753  300  +2.7    0.0     
06 27.03.16 240 (ЮЗ) 10 км  {дождь}  9/0 кучево-дожд., средняя 
[Cb calv|Ac trans]
+4.3 -0.4 71 +3  1014.5  0.8  754  299  +2.6         
09 27.03.16 230 (ЮЗ) 10 км  слаб. ливневой дождь  9/0 кучево-дожд., средняя 
[Cb calv|Ac trans]
+5 -1 65 +3  1014.7  0.3  754  299           
12 27.03.16 230 (ЮЗ) 5{10}  10 км  {ливн. осадки}  10/0 кучево-дожд., средняя 
[Cb calv|Ac und]
+6 -1 61 +4  1014  -0.7  754  297           
15 27.03.16 200 (Ю) 10 км  {ливн. осадки}  9/0 кучево-дожд., средняя 
[Cb calv|Ac trans]
+5.4 -0.8 64 +4  1014.1  0.1  754  298    +6.7  0.0     
18 27.03.16 260 (З) 8000 м  {ливн. осадки}  5/0 средняя 
[Ac trans]
+3.3 -0.5 76 +3  1015.1  0.8  754  300           
21 27.03.16 110 (В) 3900 м  дымка  8/5 600 м средняя 
[Sc|Ac trans]
+1.1 -0.8 87 +2  1014.8  -0.2  754  303           
00 28.03.16 260 (З) 6000 м  дымка  9/6 450 м средняя 
[Sc|Ac trans]
+1.3 -0.2 90 +2  1014.5  -0.3  754  302           
03 28.03.16 190 (Ю) 4100 м  дымка  9/3 100 м средняя 
[St|Ac trans]
+1.3 +0.1 92 +1  1014.7  0.2  754  302  +0.2    0.0     
06 28.03.16 190 (Ю) 7000 м  дымка  9/4 300 м средняя 
[St|Ac trans]
+6.2 +1.9 74 +5  1015.3  0.7  755  297           
09 28.03.16 250 (З) 10 км    8/0 кучево-дожд., средняя 
[Cb calv|Ac trans]
+6.9 -1.1 57 +6  1014.8  -0.4  754  297           
12 28.03.16 210 (ЮЗ) 10 км    9/0 кучево-дожд., средняя 
[Cb calv|Ac trans]
+8.4 +0.7 58 +8  1014.2  -0.5  754  295           
15 28.03.16 220 (ЮЗ) 10 км    9/5 1050 м средняя 
[Sc|Ac trans]
+7.3 +1.2 65 +7  1014.6  0.3  754  296    +8.9       
18 28.03.16 330 (СЗ) 8000 м    9/6 1000 м средняя 
[Sc|Ac trans]
+6.8 -0.6 59 +8  1015.6  0.9  755  297           
21 28.03.16 150 (ЮВ) 8000 м    9/0 средняя 
[Sc|Ac trans]
+5.8 +1.1 72 +7  1015.9  0.3  755  298           
00 29.03.16 170 (Ю) 8000 м    9/0 средняя 
[Sc|Ac trans]
+5 +1.6 79 +6  1016.1  0.1  755  299           
03 29.03.16 090 (В) 8000 м    9/0 средняя 
[Sc|Ac trans]
+4.5 +2.4 86 +5  1016.8  0.7  756  299  +4.5         
06 29.03.16 140 (ЮВ) 10 км    8/4 200 м средняя 
[St|Ac trans]
+6.2 +3.6 83 +6  1017.9  757  298  +4.3         
09 29.03.16 100 (В) 10 км    8/0 средняя 
[Sc|Ac trans]
+9.8 +1.4 56 +9  1018  0.2  757  294           
12 29.03.16 110 (В) 10 км    8/0 средняя 
[Sc|Ac trans]
+10.7 +0.6 50 +10  1017.8  757  293           
15 29.03.16 280 (З) 10 км    8/0 средняя, верхняя 
[Sc|Ac trans|Ci fib]
+11 -1.2 43 +10  1018.7  0.9  757  293    +12       
18 29.03.16 тихо ()   6000 м  дым  4/0 средняя 
[Ac trans]
+5.9 -2.9 53 +6  1020.3  1.4  758  299           
21 29.03.16 тихо ()   4800 м  местами туман поземный  4/0 верхняя 
[Ci fib]
+4.3 +2.3 87 +4  1021  0.5  759  301           
00 30.03.16 260 (З) 5000 м  дымка  5/0 верхняя 
[Ci fib]
+3 +1.2 88 +4  1021.3  0.3  759  302           
03 30.03.16 тихо ()   2700 м  дымка  8/0 средняя, верхняя 
[Ac trans|Ci fib]
+2.8 +1.7 92 +3  1021.7  0.4  759  303  +2.2         
06 30.03.16 210 (ЮЗ) 4600 м  дымка  9/0 средняя, верхняя 
[Ac trans|Ci fib]
+6 +1.5 73 +6  1022.6  760  299           
09 30.03.16 190 (Ю) 10 км    9/0 средняя, верхняя 
[Ac trans|Ci fib]
+12 +1.3 48 +12  1022.4  760  293           
12 30.03.16 210 (ЮЗ) 10 км    9/0 средняя, верхняя 
[Sc|Ac trans|Ci]
+12.8 -0.6 40 +13  1021.6  -0.8  759  292           
15 30.03.16 260 (З) 10 км    9/0 средняя, верхняя 
[Sc|Ac trans|Ci]
+10.7 +1.9 54 +11  1021.7  759  294    +13       
18 30.03.16 260 (З) 8000 м    10/0 средняя 
[Sc|Ac und]
+8.8 +2.7 66 +9  1022.4  0.6  760  296           
21 30.03.16 270 (З) 8000 м    9/0 средняя 
[Sc|Ac trans]
+8.3 +2.3 66 +8  1022.5  760  297           
00 31.03.16 270 (З) 8000 м    8/0 средняя 
[Sc|Ac trans]
+7.3 +1.2 65 +7  1022.6  0.1  760  298           
03 31.03.16 тихо ()   8000 м    5/0 средняя 
[Ac trans]
+4.9 +2.7 86 +5  1023.2  0.5  760  301  +4.9         
06 31.03.16 220 (ЮЗ) 10 км    1/0 средняя 
[Ac trans]
+8.6 +4.4 75 +7  1023.9  0.8  761  297  +3.7         
09 31.03.16 230 (ЮЗ) 6-10{10}  10 км    4/0 
[Sc]
+13.1 +3.8 53 +12  1023.1  -0.6  761  292           
12 31.03.16 250 (З) 6{10}  10 км    4/0 
[Sc]
+13.1 +3.4 52 +12  1022.4  -0.7  760  292           
15 31.03.16 270 (З) 5{10}  10 км    4/0 средняя 
[Sc|Ac trans]
+10.9 +4.4 64 +10  1022.3  -0.2  760  294    +13.2       
18 31.03.16 250 (З) 5{10}  8000 м    8/0 средняя 
[Ac trans]
+9.2 +5 75 +8  1022.2  760  295           
21 31.03.16 240 (ЮЗ) 8000 м    9/0 средняя 
[Ac trans]
+8.8 +5.2 78 +7  1021.4  -0.8  759  296           
00 01.04.16 230 (ЮЗ) 6{10}  8000 м    6/0 средняя 
[Ac trans]
+8.2 +4 75 +6  1020.1  -1.2  758  296           
03 01.04.16 240 (ЮЗ) 6-10{11}  8000 м    5/0 средняя, верхняя 
[Ac trans|Ci fib]
+7.6 +3.1 73 +6  1019.4  -0.7  758  297  +7.5         
Время (UTC), дата Ветер
(°,м/с) 
Видим.   Явления Облачность Т
(°С)
Тd
(°С)
f(%) Тe
(°С)
Pmin
(гПа)
dP
(гПа)
Po
(мм)
O2
(г/м3)
Тmin Tmax R s Состояние
почвы